This is the latest recevied weather packets stored in our database for station/object IW2NIA-3. If no packets are shown the sender has not sent any weather packets the latest 10 day(s).
| Time | Temp. | Humidity | Pressure | Rain* | Wind** | Luminosity | Snow |
|---|---|---|---|---|---|---|---|
| 1778069919 | 16.11° C | 89% | 1006.6 hPa | 0.51 mm | - | - | - |
| 1778069015 | 16.11° C | 90% | 1006.5 hPa | 0.25 mm | - | - | - |
| 1778068109 | 16.11° C | 91% | 1006.5 hPa | 0.25 mm | - | - | - |
| 1778067212 | 15.56° C | 93% | 1006.6 hPa | 0.25 mm | - | - | - |
| 1778066305 | 15° C | 93% | 1006.9 hPa | 0 mm | - | - | - |
| 1778065418 | 15° C | 94% | 1006.9 hPa | 0 mm | - | - | - |
| 1778064512 | 14.44° C | 96% | 1006.8 hPa | 0 mm | - | - | - |
| 1778063622 | 15° C | 97% | 1007.2 hPa | 0 mm | - | - | - |
| 1778062718 | 13.89° C | 97% | 1007.2 hPa | 0 mm | - | - | - |
| 1778061809 | 13.89° C | 97% | 1007.1 hPa | 0 mm | - | - | - |
| 1778060909 | 13.89° C | 97% | 1007.2 hPa | 0 mm | - | - | - |
| 1778060008 | 13.89° C | 97% | 1007.2 hPa | 0 mm | - | - | - |
| 1778059120 | 13.33° C | 97% | 1007.3 hPa | 0.51 mm | - | - | - |
| 1778058220 | 13.33° C | 97% | 1007 hPa | 1.27 mm | - | - | - |
| 1778057321 | 13.33° C | 97% | 1006.9 hPa | 1.78 mm | - | - | - |
| 1778056413 | 13.33° C | 97% | 1007.2 hPa | 1.78 mm | - | - | - |
| 1778055508 | 13.33° C | 97% | 1007.4 hPa | 2.03 mm | - | - | - |
| 1778054610 | 12.78° C | 97% | 1007.4 hPa | 1.52 mm | - | - | - |
| 1778053705 | 13.33° C | 97% | 1007.4 hPa | 1.52 mm | - | - | - |
| 1778052818 | 13.33° C | 97% | 1007.5 hPa | 1.52 mm | - | - | - |
| 1778051912 | 13.33° C | 97% | 1007.4 hPa | 1.02 mm | - | - | - |
| 1778051009 | 13.33° C | 97% | 1007.7 hPa | 0.51 mm | - | - | - |
| 1778050125 | 12.78° C | 97% | 1007.7 hPa | 0 mm | - | - | - |
| 1778049221 | 12.78° C | 97% | 1007.6 hPa | 0 mm | - | - | - |
| 1778048311 | 12.78° C | 97% | 1007.5 hPa | 0.25 mm | - | - | - |
* Rain latest hour (hover to see other rain measurements)
** Current wind speed in m/s (hover to see current wind gust speed)